KC2DUX Weather Reports


Display with metric or nautical units.
time (UTC)temp
F
wind
direction
speed
MPH
gust
MPH
rain 1hr
in
rain 24hr
in
rain mn
in
humidity
%
barometer
mb
20260509015030 56 205 1.0 3.0 0.00 0.00 0.00 67 1013.1
20260509014532 56 185 1.0 5.0 0.00 0.00 0.00 67 1013.2
20260509014030 56 217 2.0 5.0 0.00 0.00 0.00 67 1013.1
20260509013530 56 221 2.0 5.0 0.00 0.00 0.00 67 1013.1
20260509013040 56 218 2.0 6.0 0.00 0.00 0.00 68 1013.1
20260509012532 56 223 1.0 6.0 0.00 0.00 0.00 69 1013.1
20260509012030 56 206 2.0 8.0 0.00 0.00 0.00 69 1013.0
20260509011530 56 215 3.0 7.0 0.00 0.00 0.00 70 1012.9
20260509011028 56 209 4.0 6.0 0.00 0.00 0.00 70 1012.8
20260509010532 56 228 3.0 9.0 0.00 0.00 0.00 70 1012.7
20260509010028 56 199 5.0 9.0 0.00 0.00 0.00 70 1012.6
20260509005529 56 220 5.0 8.0 0.00 0.00 0.00 71 1012.5
20260509005029 56 221 3.0 7.0 0.00 0.00 0.00 71 1012.5
20260509004532 56 218 3.0 7.0 0.00 0.00 0.00 71 1012.4
20260509004027 56 215 3.0 6.0 0.00 0.00 0.00 70 1012.4
20260509003528 56 212 2.0 4.0 0.00 0.00 0.00 70 1012.4
20260509003028 57 213 2.0 5.0 0.00 0.00 0.00 70 1012.3
20260509002527 57 229 2.0 5.0 0.00 0.00 0.00 69 1012.3
20260509002027 57 219 2.0 7.0 0.00 0.00 0.00 69 1012.2
20260509001527 57 227 2.0 6.0 0.00 0.00 0.00 68 1012.2
20260509001026 57 134 2.0 5.0 0.00 0.00 0.00 68 1012.2
20260509000527 57 196 2.0 6.0 0.00 0.00 0.00 67 1012.2
20260509000026 57 205 2.0 7.0 0.00 0.00 0.00 67 1012.2
20260508235526 58 229 3.0 7.0 0.00 0.00 0.00 67 1012.2
20260508235026 58 184 3.0 7.0 0.00 0.00 0.00 67 1012.0
20260508234530 58 190 2.0 7.0 0.00 0.00 0.00 66 1012.0
20260508234030 58 201 2.0 7.0 0.00 0.00 0.00 65 1011.9
20260508233526 59 207 2.0 6.0 0.00 0.00 0.00 64 1011.9
20260508233027 59 202 2.0 7.0 0.00 0.00 0.00 64 1011.8
20260508232525 59 178 3.0 7.0 0.00 0.00 0.00 63 1011.9
20260508232025 60 218 3.0 6.0 0.00 0.00 0.00 63 1011.7
20260508231525 60 221 2.0 6.0 0.00 0.00 0.00 62 1011.7
20260508231024 60 207 2.0 8.0 0.00 0.00 0.00 62 1011.7
20260508230523 60 195 3.0 8.0 0.00 0.00 0.00 62 1011.7
20260508230037 60 211 4.0 9.0 0.00 0.00 0.00 61 1011.6
20260508225523 61 213 4.0 9.0 0.00 0.00 0.00 61 1011.6
20260508225025 60 225 4.0 9.0 0.00 0.00 0.00 61 1011.7
20260508224526 61 217 5.0 10.0 0.00 0.00 0.00 60 1011.6
20260508224023 61 198 5.0 12.0 0.00 0.00 0.00 58 1011.6
20260508223527 61 218 5.0 12.0 0.00 0.00 0.00 57 1011.7
20260508223028 61 224 5.0 11.0 0.00 0.00 0.00 58 1011.5
20260508222522 61 252 6.0 10.0 0.00 0.00 0.00 56 1011.4
20260508222024 62 225 5.0 11.0 0.00 0.00 0.00 55 1011.4
20260508221521 62 230 6.0 12.0 0.00 0.00 0.00 55 1011.4
20260508221021 62 196 5.0 9.0 0.00 0.00 0.00 54 1011.5
20260508220521 62 214 5.0 10.0 0.00 0.00 0.00 54 1011.4
20260508220026 62 109 5.0 10.0 0.00 0.00 0.00 53 1011.5
20260508215530 62 219 5.0 11.0 0.00 0.00 0.00 53 1011.5
20260508215020 62 219 5.0 15.0 0.00 0.00 0.00 52 1011.5
20260508214527 62 194 8.0 14.0 0.00 0.00 0.00 52 1011.6
20260508214019 62 214 6.0 14.0 0.00 0.00 0.00 51 1011.7
20260508213519 63 191 6.0 16.0 0.00 0.00 0.00 50 1011.6
20260508213019 63 238 8.0 16.0 0.00 0.00 0.00 47 1011.6
20260508212519 63 208 6.0 14.0 0.00 0.00 0.00 47 1011.7
20260508212018 63 208 7.0 12.0 0.00 0.00 0.00 47 1011.7
20260508211532 63 200 6.0 12.0 0.00 0.00 0.00 47 1011.8
20260508211019 63 225 8.0 17.0 0.00 0.00 0.00 47 1011.8
20260508210518 63 217 9.0 13.0 0.00 0.00 0.00 46 1011.8
20260508210017 63 187 5.0 15.0 0.00 0.00 0.00 44 1011.9
20260508205517 63 221 7.0 19.0 0.00 0.00 0.00 44 1011.9
20260508205019 63 211 8.0 18.0 0.00 0.00 0.00 46 1011.8
20260508204519 63 213 8.0 14.0 0.00 0.00 0.00 46 1011.9
20260508204016 64 222 7.0 14.0 0.00 0.00 0.00 44 1011.9
20260508203516 64 219 5.0 14.0 0.00 0.00 0.00 43 1011.9
20260508203017 64 212 7.0 13.0 0.00 0.00 0.00 43 1012.0
20260508202517 64 219 6.0 12.0 0.00 0.00 0.00 43 1012.0
20260508202016 64 224 7.0 17.0 0.00 0.00 0.00 44 1012.0
20260508201516 64 233 8.0 17.0 0.00 0.00 0.00 42 1012.1
20260508201015 64 203 8.0 17.0 0.00 0.00 0.00 43 1012.2
20260508200515 64 211 8.0 15.0 0.00 0.00 0.00 44 1012.2
20260508200014 65 196 7.0 14.0 0.00 0.00 0.00 44 1012.2
20260508195514 65 209 8.0 17.0 0.00 0.00 0.00 42 1012.2
20260508195014 66 221 8.0 17.0 0.00 0.00 0.00 41 1012.2
20260508194526 66 231 6.0 11.0 0.00 0.00 0.00 40 1012.2
20260508194013 66 250 7.0 12.0 0.00 0.00 0.00 39 1012.3
20260508193513 67 225 5.0 15.0 0.00 0.00 0.00 39 1012.4
20260508193013 67 229 7.0 11.0 0.00 0.00 0.00 37 1012.4
20260508192518 67 234 6.0 13.0 0.00 0.00 0.00 38 1012.5
20260508192012 67 213 7.0 16.0 0.00 0.00 0.00 37 1012.4
20260508191511 67 234 5.0 16.0 0.00 0.00 0.00 37 1012.4
20260508191010 66 219 5.0 10.0 0.00 0.00 0.00 38 1012.5
20260508190513 66 246 6.0 12.0 0.00 0.00 0.00 39 1012.6
20260508190013 66 236 8.0 13.0 0.00 0.00 0.00 38 1012.6
20260508185509 66 267 5.0 10.0 0.00 0.00 0.00 38 1012.6
20260508185010 66 181 6.0 11.0 0.00 0.00 0.00 38 1012.7
20260508184509 66 236 6.0 11.0 0.00 0.00 0.00 37 1012.8
20260508184007 65 236 5.0 11.0 0.00 0.00 0.00 38 1012.8
20260508183508 65 206 5.0 17.0 0.00 0.00 0.00 38 1012.8
20260508183011 65 210 5.0 12.0 0.00 0.00 0.00 38 1012.9
20260508182507 65 231 4.0 13.0 0.00 0.00 0.00 37 1012.9
20260508182006 65 297 4.0 13.0 0.00 0.00 0.00 40 1012.9
20260508181507 65 214 6.0 14.0 0.00 0.00 0.00 40 1013.0
20260508181004 64 253 6.0 14.0 0.00 0.00 0.00 39 1012.9
20260508180504 64 248 6.0 10.0 0.00 0.00 0.00 41 1013.0
20260508180011 64 254 5.0 10.0 0.00 0.00 0.00 41 1013.1
20260508175502 64 197 6.0 12.0 0.00 0.00 0.00 39 1013.1
20260508175003 63 268 8.0 12.0 0.00 0.00 0.00 38 1013.2
20260508174500 63 228 5.0 11.0 0.00 0.00 0.00 40 1013.1
20260508174100 63 246 7.0 13.0 0.00 0.00 0.00 40 1013.1
20260508173601 63 234 6.0 13.0 0.00 0.00 0.00 40 1013.2
20260508173059 63 216 6.0 12.0 0.00 0.00 0.00 39 1013.3
20260508172559 63 198 7.0 13.0 0.00 0.00 0.00 39 1013.4
20260508172059 63 246 5.0 13.0 0.00 0.00 0.00 39 1013.5
20260508171559 62 235 6.0 13.0 0.00 0.00 0.00 40 1013.5
20260508171057 62 239 6.0 12.0 0.00 0.00 0.00 40 1013.5
20260508170557 62 215 6.0 9.0 0.00 0.00 0.00 38 1013.6
20260508170100 62 219 5.0 10.0 0.00 0.00 0.00 38 1013.7
20260508165558 62 205 5.0 10.0 0.00 0.00 0.00 39 1013.7
20260508165055 62 221 4.0 11.0 0.00 0.00 0.00 41 1013.8
20260508164556 61 221 6.0 12.0 0.00 0.00 0.00 40 1013.9
20260508164054 61 204 6.0 12.0 0.00 0.00 0.00 44 1013.9
20260508163556 61 248 6.0 15.0 0.00 0.00 0.00 43 1014.0
20260508163053 61 254 6.0 17.0 0.00 0.00 0.00 41 1014.1
20260508162553 61 261 8.0 17.0 0.00 0.00 0.00 42 1014.0
20260508162054 61 238 8.0 14.0 0.00 0.00 0.00 44 1014.1
20260508161551 60 253 5.0 11.0 0.00 0.00 0.00 45 1014.2
20260508161050 60 221 7.0 12.0 0.00 0.00 0.00 46 1014.2
20260508160551 61 237 6.0 12.0 0.00 0.00 0.00 45 1014.3
20260508160050 60 209 5.0 13.0 0.00 0.00 0.00 47 1014.3
20260508155550 61 208 6.0 12.0 0.00 0.00 0.00 49 1014.3
20260508155053 60 245 6.0 10.0 0.00 0.00 0.00 49 1014.2
20260508154608 60 257 7.0 12.0 0.00 0.00 0.00 47 1014.2
20260508154048 60 256 7.0 12.0 0.00 0.00 0.00 51 1014.1
20260508153549 60 227 6.0 11.0 0.00 0.00 0.00 50 1014.2
20260508153048 60 235 6.0 11.0 0.00 0.00 0.00 50 1014.1
20260508152548 60 229 6.0 11.0 0.00 0.00 0.00 49 1014.3
20260508152047 60 207 5.0 11.0 0.00 0.00 0.00 48 1014.3
20260508151549 60 214 6.0 11.0 0.00 0.00 0.00 47 1014.3
20260508151047 59 299 5.0 10.0 0.00 0.00 0.00 47 1014.4
20260508150548 60 270 6.0 15.0 0.00 0.00 0.00 48 1014.4
20260508150046 60 225 4.0 15.0 0.00 0.00 0.00 50 1014.3
20260508145546 59 265 8.0 15.0 0.00 0.00 0.00 50 1014.3
20260508145045 60 228 6.0 13.0 0.00 0.00 0.00 48 1014.4
20260508144559 59 228 7.0 13.0 0.00 0.00 0.00 49 1014.5
20260508144045 59 238 6.0 13.0 0.00 0.00 0.00 50 1014.5
20260508143545 59 230 5.0 8.0 0.00 0.00 0.00 48 1014.6
20260508143045 59 219 3.0 10.0 0.00 0.00 0.00 50 1014.6
20260508142544 59 255 5.0 12.0 0.00 0.00 0.00 50 1014.6
20260508142045 59 250 7.0 12.0 0.00 0.00 0.00 50 1014.5
20260508141544 59 248 4.0 8.0 0.00 0.00 0.00 51 1014.5
20260508141042 60 265 3.0 8.0 0.00 0.00 0.00 49 1014.5
20260508140541 59 257 2.0 5.0 0.00 0.00 0.00 44 1014.4
20260508140041 59 286 1.0 5.0 0.00 0.00 0.00 45 1014.5
20260508135543 59 236 2.0 9.0 0.00 0.00 0.00 42 1014.6
20260508135040 59 264 4.0 10.0 0.00 0.00 0.00 45 1014.6
20260508134555 59 256 5.0 10.0 0.00 0.00 0.00 43 1014.6
20260508134040 59 271 3.0 9.0 0.00 0.00 0.00 43 1014.6
20260508133539 59 276 1.0 8.0 0.00 0.00 0.00 45 1014.7
20260508133049 59 67 1.0 4.0 0.00 0.00 0.00 46 1014.7
20260508132538 58 48 1.0 9.0 0.00 0.00 0.00 47 1014.7
20260508132037 58 311 2.0 9.0 0.00 0.00 0.00 49 1014.7
20260508131538 58 29 1.0 4.0 0.00 0.00 0.00 50 1014.6
20260508131035 58 329 0.0 3.0 0.00 0.00 0.00 52 1014.6
20260508130536 58 332 0.0 4.0 0.00 0.00 0.00 55 1014.6
20260508130035 57 41 1.0 7.0 0.00 0.00 0.00 54 1014.6
20260508125533 57 237 2.0 5.0 0.00 0.00 0.00 54 1014.6
20260508125031 57 28 1.0 5.0 0.00 0.00 0.00 58 1014.6
20260508124534 56 32 2.0 5.0 0.00 0.00 0.00 58 1014.7
20260508124028 56 293 1.0 8.0 0.00 0.00 0.00 60 1014.6
20260508123528 56 304 2.0 8.0 0.00 0.00 0.00 59 1014.5
20260508123043 56 322 2.0 6.0 0.00 0.00 0.00 61 1014.5
20260508122528 55 22 2.0 5.0 0.00 0.00 0.00 59 1014.5
20260508122027 56 313 1.0 5.0 0.00 0.00 0.00 61 1014.6
20260508121530 55 306 0.0 4.0 0.00 0.00 0.00 63 1014.3
20260508121024 54 16 1.0 4.0 0.00 0.00 0.00 64 1014.3
20260508120523 54 37 1.0 4.0 0.00 0.00 0.00 64 1014.2
20260508120023 54 355 1.0 3.0 0.00 0.00 0.00 65 1014.2
20260508115526 53 36 1.0 4.0 0.00 0.00 0.00 66 1014.2
20260508115022 53 31 1.0 5.0 0.00 0.00 0.00 66 1014.2
20260508114522 53 36 2.0 5.0 0.00 0.00 0.00 66 1014.2
20260508114021 52 298 2.0 5.0 0.00 0.00 0.00 67 1014.3
20260508113521 52 360 2.0 4.0 0.00 0.00 0.00 68 1014.1
20260508113021 52 10 1.0 6.0 0.00 0.00 0.00 69 1014.0
20260508112520 51 22 3.0 6.0 0.00 0.00 0.00 68 1013.9
20260508112018 51 23 1.0 4.0 0.00 0.00 0.00 70 1013.8
20260508111517 50 37 1.0 8.0 0.00 0.00 0.00 71 1013.7
20260508111018 50 29 3.0 8.0 0.00 0.00 0.00 71 1013.6
20260508110516 49 27 2.0 5.0 0.00 0.00 0.00 73 1013.5
20260508110015 49 37 1.0 5.0 0.00 0.00 0.00 73 1013.5
20260508105515 48 22 2.0 5.0 0.00 0.00 0.00 74 1013.5
20260508105014 48 5 1.0 5.0 0.00 0.00 0.00 75 1013.5
20260508104513 48 5 1.0 4.0 0.00 0.00 0.00 76 1013.5
20260508104013 47 9 1.0 3.0 0.00 0.00 0.00 76 1013.4
20260508103512 47 351 0.0 3.0 0.00 0.00 0.00 76 1013.3
20260508103012 48 10 0.0 2.0 0.00 0.00 0.00 76 1013.2
20260508102510 48 360 0.0 2.0 0.00 0.00 0.00 75 1013.1
20260508102008 48 20 0.0 3.0 0.00 0.00 0.00 75 1013.0
20260508101508 48 30 1.0 5.0 0.00 0.00 0.00 75 1013.0
20260508101007 48 11 0.0 5.0 0.00 0.00 0.00 74 1013.0
20260508100504 49 18 1.0 3.0 0.00 0.00 0.00 74 1012.8
20260508100004 49 38 1.0 6.0 0.00 0.00 0.00 74 1012.8
20260508095503 49 24 2.0 6.0 0.00 0.00 0.00 73 1012.7
20260508095001 49 5 2.0 6.0 0.00 0.00 0.00 73 1012.6
20260508094609 50 14 2.0 6.0 0.00 0.00 0.00 73 1012.6
20260508094059 50 29 2.0 6.0 0.00 0.00 0.00 73 1012.5
20260508093601 50 346 2.0 6.0 0.00 0.00 0.00 73 1012.4
20260508093058 50 344 3.0 8.0 0.00 0.00 0.00 73 1012.3
20260508092556 50 349 2.0 8.0 0.00 0.00 0.00 73 1012.2
20260508092055 50 16 2.0 8.0 0.00 0.00 0.00 74 1012.1
20260508091603 51 347 3.0 8.0 0.00 0.00 0.00 74 1012.0
20260508091053 51 355 3.0 10.0 0.00 0.00 0.00 74 1011.8
20260508090551 51 5 3.0 10.0 0.00 0.00 0.00 75 1011.8
20260508090112 51 36 2.0 6.0 0.00 0.00 0.00 75 1011.7
20260508085550 51 42 2.0 10.0 0.00 0.00 0.00 75 1011.6
20260508085052 51 27 2.0 8.0 0.00 0.00 0.00 76 1011.6
20260508084550 51 37 3.0 8.0 0.00 0.00 0.00 76 1011.4
20260508084048 52 29 2.0 8.0 0.00 0.00 0.00 77 1011.3
20260508083547 52 5 2.0 8.0 0.00 0.00 0.00 77 1011.3
20260508083046 52 351 2.0 6.0 0.00 0.00 0.00 77 1011.2
20260508082547 52 5 2.0 6.0 0.00 0.00 0.00 77 1011.1
20260508082044 52 312 1.0 9.0 0.00 0.00 0.00 77 1011.1
20260508081600 52 44 3.0 9.0 0.00 0.00 0.00 77 1010.9
20260508081041 53 270 3.0 8.0 0.00 0.00 0.00 77 1010.8
20260508080543 53 350 1.0 10.0 0.00 0.00 0.00 77 1010.7
20260508080041 53 78 2.0 9.0 0.00 0.00 0.00 77 1010.6
20260508075542 53 338 1.0 12.0 0.00 0.00 0.00 77 1010.5
20260508075039 53 327 3.0 12.0 0.00 0.00 0.00 77 1010.4
20260508074543 53 346 3.0 10.0 0.00 0.00 0.00 77 1010.4
20260508074041 53 24 2.0 10.0 0.00 0.00 0.00 78 1010.3
20260508073538 53 279 2.0 11.0 0.00 0.00 0.00 78 1010.2
20260508073047 54 254 3.0 11.0 0.00 0.00 0.00 78 1010.1
20260508072536 54 243 2.0 10.0 0.00 0.00 0.00 78 1010.1
20260508072036 54 311 3.0 9.0 0.00 0.00 0.00 78 1009.9
20260508071536 54 229 2.0 8.0 0.00 0.00 0.00 77 1010.0
20260508071035 54 309 3.0 8.0 0.00 0.00 0.00 76 1009.9
20260508070535 54 242 2.0 8.0 0.00 0.00 0.00 76 1009.8
20260508070034 54 281 2.0 9.0 0.00 0.00 0.00 76 1009.8
20260508065535 54 261 3.0 10.0 0.00 0.01 0.00 76 1009.8
20260508065034 54 246 3.0 11.0 0.00 0.01 0.00 76 1009.8
20260508064536 54 276 2.0 11.0 0.00 0.01 0.00 76 1009.8
20260508064033 54 216 2.0 10.0 0.00 0.01 0.00 76 1009.8
20260508063533 54 281 3.0 10.0 0.00 0.01 0.00 75 1009.9
20260508063036 54 236 1.0 5.0 0.00 0.01 0.00 75 1009.9
20260508062532 54 244 2.0 5.0 0.00 0.01 0.00 75 1009.9
20260508062032 54 255 1.0 5.0 0.00 0.01 0.00 75 1009.9
20260508061539 54 243 2.0 7.0 0.00 0.01 0.00 76 1009.8
20260508061031 54 206 3.0 7.0 0.00 0.01 0.00 76 1009.8
20260508060536 54 262 1.0 8.0 0.00 0.01 0.00 77 1009.9
20260508060032 54 251 1.0 8.0 0.00 0.01 0.00 77 1009.9
20260508055530 54 217 2.0 8.0 0.00 0.01 0.00 77 1009.9
20260508055030 54 279 2.0 5.0 0.00 0.01 0.00 78 1010.0
20260508054535 54 240 2.0 8.0 0.00 0.01 0.00 78 1009.9
20260508054029 54 232 3.0 8.0 0.00 0.01 0.00 77 1009.9
20260508053528 54 264 3.0 8.0 0.00 0.01 0.00 78 1009.9
20260508053033 54 237 3.0 9.0 0.00 0.01 0.00 79 1010.0
20260508052530 54 240 4.0 12.0 0.00 0.01 0.00 79 1009.9
20260508052029 54 240 3.0 12.0 0.00 0.01 0.00 80 1009.9
20260508051526 54 272 3.0 7.0 0.00 0.01 0.00 80 1010.0
20260508051030 53 242 2.0 7.0 0.00 0.01 0.00 81 1010.0
20260508050524 53 217 2.0 7.0 0.00 0.01 0.00 81 1010.0
20260508050027 53 246 2.0 4.0 0.00 0.01 0.00 81 1010.0
20260508045522 53 279 2.0 6.0 0.00 0.01 0.00 81 1010.0
20260508045021 53 234 2.0 6.0 0.00 0.01 0.00 81 1010.0
20260508044522 53 244 2.0 8.0 0.00 0.01 0.00 80 1009.9
20260508044020 53 232 2.0 8.0 0.00 0.01 0.00 80 1009.9
20260508043520 53 261 2.0 7.0 0.00 0.01 0.00 79 1009.9
20260508043020 53 221 2.0 7.0 0.00 0.01 0.00 79 1009.9
20260508042520 53 246 2.0 8.0 0.00 0.01 0.00 79 1009.9
20260508042019 53 253 2.0 8.0 0.00 0.01 0.00 78 1009.9
20260508041522 53 257 2.0 7.0 0.00 0.01 0.00 78 1009.9
20260508041018 53 270 1.0 10.0 0.00 0.01 0.00 78 1009.8
20260508040518 53 186 2.0 10.0 0.00 0.01 0.00 78 1009.8
20260508040017 53 238 2.0 8.0 0.00 0.01 0.00 78 1009.8
20260508035516 53 250 2.0 9.0 0.00 0.01 0.01 78 1009.8
20260508035016 53 242 2.0 9.0 0.00 0.01 0.01 78 1009.8
20260508034517 53 229 2.0 8.0 0.00 0.01 0.01 78 1009.7
20260508034016 53 287 3.0 8.0 0.00 0.01 0.01 78 1009.8
20260508033518 53 261 3.0 8.0 0.00 0.01 0.01 78 1009.8
20260508033015 53 236 3.0 8.0 0.00 0.01 0.01 78 1009.8
20260508032515 53 296 3.0 9.0 0.00 0.01 0.01 79 1009.8
20260508032015 53 211 3.0 9.0 0.00 0.01 0.01 80 1009.8
20260508031515 53 244 3.0 11.0 0.00 0.01 0.01 81 1009.8
20260508031014 52 188 2.0 10.0 0.00 0.01 0.01 82 1009.8
20260508030514 52 244 3.0 10.0 0.00 0.01 0.01 84 1009.9
20260508030014 51 228 3.0 8.0 0.00 0.01 0.01 88 1009.9
20260508025514 49 247 2.0 7.0 0.00 0.01 0.01 88 1009.8
20260508025017 49 228 1.0 3.0 0.00 0.01 0.01 87 1009.9
20260508024531 49 219 0.0 1.0 0.00 0.01 0.01 86 1009.9
20260508024011 49 219 0.0 1.0 0.00 0.01 0.01 86 1010.0
20260508023511 49 219 0.0 3.0 0.00 0.01 0.01 86 1009.9
20260508023010 49 219 1.0 3.0 0.00 0.01 0.01 86 1009.8
20260508022511 49 211 1.0 3.0 0.00 0.01 0.01 86 1009.8
20260508022009 50 205 1.0 3.0 0.00 0.01 0.01 85 1009.9
20260508021509 50 209 1.0 2.0 0.00 0.01 0.01 85 1009.9
20260508021007 50 209 0.0 3.0 0.00 0.01 0.01 85 1009.9
20260508020506 50 209 1.0 4.0 0.00 0.01 0.01 85 1009.8
20260508020006 50 202 2.0 4.0 0.00 0.01 0.01 85 1009.7
20260508015508 50 194 2.0 3.0 0.00 0.01 0.01 84 1009.7